Augusta, GA

9:00 PM EDT on August 26, 2016 (GMT -0400)
Daniel

Weather History for KDNL - May, 2013

Change the Weather History Date:

Wednesday, May 8, 2013

  Actual Average Record
Temperature  
Mean Temperature 66 °F -  
Max Temperature 79 °F 79 °F 94 °F (2014)
Min Temperature 53 °F 59 °F 53 °F (2007)
Cooling Degree Days 1    
Month to date cooling degree days 2  
Year to date cooling degree days 96  
Growing Degree Days 16 (Base 50)    
Moisture  
Dew Point 50 °F    
Average Humidity 58    
Maximum Humidity 89    
Minimum Humidity 35    
Precipitation  
Precipitation 0.00 in - - ()
Month to date precipitation 1.41  
Year to date precipitation 18.34  
Sea Level Pressure  
Sea Level Pressure 30.00 in    
Wind  
Wind Speed 5 mph (West)    
Max Wind Speed 13 mph    
Max Gust Speed 21 mph    
Visibility 10 miles    
Events      
Averages and records for this station are not official NWS values.
T = Trace of Precipitation, MM = Missing Value Source: NWS Daily Summary

Daily Weather History Graph

Daily Weather History Graph

Search for Another Location

Airport or City:

Trip Planner

Search our weather history database for the weather conditions in past years. The results will help you decide how hot, cold, wet, or windy it might be!

Date:

Astronomy

May. 08, 2013 Rise Set
Actual Time 6:33 AM EDT 8:16 PM EDT
Civil Twilight 6:06 AM EDT 8:43 PM EDT
Nautical Twilight 5:33 AM EDT 9:16 PM EDT
Astronomical Twilight 4:59 AM EDT 9:50 PM EDT
Moon 5:36 AM EDT (5/8) 7:15 PM EDT (5/8)
Length of Visible Light 14h 37m
Length of Day
13h 43m
Waning Crescent, 2% of the Moon is Illuminated
May 8
Waning Crescent
May 9
New
May 18
First Quarter
May 25
Full
May 31
Last Quarter

Hourly Weather History & Observations

Time (EDT) Temp. Dew Point Humidity Pressure Visibility Wind Dir Wind Speed Gust Speed Precip Events Conditions
12:53 AM 57.0 °F 48.9 °F 74% 29.97 in 10.0 mi SW 3.5 mph - N/A   Clear
1:53 AM 57.0 °F 48.9 °F 74% 29.96 in 10.0 mi Calm Calm - N/A   Clear
2:53 AM 55.9 °F 48.9 °F 77% 29.94 in 10.0 mi West 4.6 mph - N/A   Clear
3:53 AM 55.9 °F 50.0 °F 80% 29.95 in 10.0 mi West 3.5 mph - N/A   Clear
4:53 AM 55.0 °F 50.0 °F 83% 29.96 in 10.0 mi Calm Calm - N/A   Clear
5:53 AM 54.0 °F 50.0 °F 86% 29.97 in 10.0 mi West 3.5 mph - N/A   Clear
6:53 AM 53.1 °F 50.0 °F 89% 29.99 in 10.0 mi Calm Calm - N/A   Clear
7:53 AM 55.9 °F 50.0 °F 80% 30.02 in 10.0 mi Variable 4.6 mph - N/A   Clear
8:53 AM 62.1 °F 52.0 °F 70% 30.03 in 10.0 mi WNW 6.9 mph - N/A   Clear
9:53 AM 66.0 °F 53.1 °F 63% 30.04 in 10.0 mi NW 4.6 mph - N/A   Clear
10:53 AM 70.0 °F 52.0 °F 53% 30.04 in 10.0 mi West 8.1 mph - N/A   Clear
11:53 AM 73.9 °F 52.0 °F 46% 30.04 in 10.0 mi WNW 6.9 mph - N/A   Clear
12:53 PM 75.0 °F 48.0 °F 38% 30.02 in 10.0 mi Variable 4.6 mph - N/A   Clear
1:53 PM 77.0 °F 48.9 °F 37% 30.01 in 10.0 mi SW 11.5 mph 17.3 mph N/A   Scattered Clouds
2:53 PM 75.9 °F 46.9 °F 36% 30.00 in 10.0 mi SW 6.9 mph - N/A   Mostly Cloudy
3:53 PM 75.9 °F 48.0 °F 37% 29.99 in 10.0 mi West 9.2 mph 16.1 mph N/A   Overcast
4:53 PM 77.0 °F 48.0 °F 36% 29.99 in 10.0 mi WNW 10.4 mph - N/A   Mostly Cloudy
5:53 PM 78.1 °F 48.0 °F 35% 29.99 in 10.0 mi West 8.1 mph - N/A   Mostly Cloudy
6:53 PM 77.0 °F 48.0 °F 36% 29.99 in 10.0 mi Variable 5.8 mph - N/A   Clear
7:53 PM 75.0 °F 48.9 °F 40% 29.99 in 10.0 mi WSW 4.6 mph - N/A   Mostly Cloudy
8:53 PM 72.0 °F 50.0 °F 46% 30.01 in 10.0 mi Calm Calm - N/A   Clear
9:53 PM 70.0 °F 51.1 °F 51% 30.03 in 10.0 mi Calm Calm - N/A   Clear
10:53 PM 68.0 °F 51.1 °F 55% 30.04 in 10.0 mi Calm Calm - N/A   Clear
11:53 PM 66.9 °F 52.0 °F 59% 30.04 in 10.0 mi Calm Calm - N/A   Clear